Location: *
(44.3683°N, 6.6958°E)
Time: 19:57:11
(UTC+00:00)

STARLINK-44 - Pass Details

Date: 14 October 2019
Orbit: 549 x 551 km, 53.0° (Epoch: 17 November)

Event Time Altitude Azimuth Distance (km) Brightness Sun altitude
Rises 17:11:55 0° 225° (SW) 2,704 8.1 -4.4°
Reaches altitude 10° 17:14:09 10° 223° (SW) 1,814 7.1 -4.8°
Maximum altitude 17:18:13 64° 142° (SE) 610 3.7 -5.6°
Drops below altitude 10° 17:22:20 10° 61° (ENE) 1,825 5.7 -6.3°
Enters shadow 17:23:14 - 59° (ENE) 2,183 6.1 -6.5°
